Location: Auckland
(36.8670°S, 174.7670°E)
Time: 19:59:57
(UTC+12:00)

Cosmos 1980 Rocket - Pass Details

Date: 24 January 2019
Orbit: 828 x 851 km, 71.0° (Epoch: 21 April)

Event Time Altitude Azimuth Distance (km) Brightness Sun altitude
Rises 20:59:29 0° 335° (NNW) 3,408 5.3 -4.6°
Reaches altitude 10° 21:01:56 10° 333° (NNW) 2,480 4.6 -5.1°
Maximum altitude 21:07:38 74° 248° (WSW) 895 2.6 -6.1°
Drops below altitude 10° 21:13:24 10° 162° (SSE) 2,502 4.8 -7.1°
Sets 21:15:53 0° 160° (SSE) 3,441 5.5 -7.5°
